Back to catalog

STARLINK-32545

AliveCommunicationsVLEO
NORAD 62135·PAYLOAD·🇺🇸 United States

Launched Nov 27, 2024 from Cape Canaveral Space Force Station

Loading…

Next Passes (next 24 hours)

TLE

FreshSource: CelesTrak SupGP

Epoch: Sep 14, 2026, 14:45 UTC

1 62135C 24222X   26257.61506944  .00038419  00000+0  13932-2 0  2577
2 62135  42.9994 149.6253 0001848 266.6924 251.1515 15.27520568    14

Track STARLINK-32545 in real time with AllMySat

Download on the App Store